Flag for U.S.A. Weather past 2 weeks in New York, New York, U.S.A.

Now
67 °F

Clear.


Feels Like: 67 °F
Forecast: 62 / 79 °F
Wind: 3 mph from South

Location: New York City - Central Park

Current Time: Aug 30, 2014 at 1:14:00 AM

Latest Report: Aug 30, 2014 at 12:51 AM


Visibility: 10 mi

Pressure: 30.26 "Hg

Humidity: 61%

Dew point: 53 °F

Location of New YorkLocation

Historic Weather in New York — Graph

°F

New York temperature yesterday

Maximum temperature yesterday: 79 °F (at 2:51 PM)
Minimum temperature yesterday: 61 °F (at 6:51 AM)
Average temperature yesterday: 69 °F

Past Weeks' High & Low Weather Summary

 TemperatureHumidityPressure
High89 °F (Aug 27, 1:51 PM)93% (Aug 22, 12:51 AM)30.25 "Hg (Aug 22, 12:51 AM)
Low61 °F (Aug 15, 5:51 AM)32% (Aug 28, 3:51 PM)29.81 "Hg (Aug 17, 3:51 PM)
Average73 °F58%30.01 "Hg
* Reported Aug 14 11:51 PM — Aug 29 11:51 PM, New York, Weather by CustomWeather, © 2014

Note: Actual official high and low records may vary slightly from our data, if they occured in-between our weather recording intervals... More about our weather records

Advertising

New York weather history for previous 24 hours

 ConditionsComfort  
Time TempWeatherWind HumidityBarometerVisibility
11:51 PM
Aug 29
67 °FClear.3 mph61%30.25 "Hg10 mi
10:51 PM68 °FClear.N/A57%30.24 "Hg10 mi
9:51 PM69 °FClear.3 mph57%30.24 "Hg10 mi
8:51 PM70 °FClear.8 mph55%30.23 "Hg10 mi
7:51 PM70 °FSunny.7 mph55%30.20 "Hg10 mi
6:51 PM72 °FSunny.3 mph49%30.19 "Hg10 mi
5:51 PM74 °FSunny.5 mph46%30.18 "Hg10 mi
4:51 PM76 °FSunny.6 mph42%30.17 "Hg10 mi
2:51 PM79 °FSunny.No wind35%30.16 "Hg10 mi
1:51 PM78 °FSunny.No wind36%30.17 "Hg10 mi
12:51 PM76 °FScattered clouds.8 mph39%30.18 "Hg10 mi
11:51 AM73 °FPartly sunny.N/A43%30.19 "Hg10 mi
10:51 AM71 °FSunny.7 mph45%30.19 "Hg10 mi
9:51 AM69 °FSunny.N/A55%30.19 "Hg10 mi
8:51 AM65 °FSunny.No wind59%30.18 "Hg10 mi
7:51 AM64 °FSunny.No wind61%30.16 "Hg10 mi
6:51 AM61 °FClear.No wind70%30.14 "Hg10 mi
5:51 AM62 °FClear.No wind62%30.12 "Hg10 mi
4:51 AM63 °FClear.No wind60%30.10 "Hg10 mi
3:51 AM63 °FClear.3 mph58%30.09 "Hg10 mi
2:51 AM66 °FClear.No wind50%30.08 "Hg10 mi
1:51 AM65 °FPassing clouds.5 mph52%30.08 "Hg10 mi
Weather by CustomWeather, © 2014

See weather overviewHow to use our weather pages